{"data":{"norad_id":64666,"intl_designator":"2025-139C","name":"STARLINK-34390","alt_names":[],"object_type":"PAYLOAD","status":"ACTIVE","operator":null,"country":"US","launch_date":"2025-06-28","launch_site_code":"AFETR","launch_vehicle":null,"mission":null,"orbit_class":"UNKNOWN","rcs_meters":null,"size_class":null,"mass_kg":null,"dimensions":null,"purposes":["comms"],"wikipedia_slug":null,"has_3d_model":false,"image_url":null,"decayed_at":null,"tle_current":{"epoch":"2026-09-20T19:26:52.134432Z","epoch_age_seconds":104577,"freshness":"FRESH","line1":"1 64666U 25139C   26263.81032563  .00016442  00000+0  49678-3 0  9998","line2":"2 64666  53.1612 296.0673 0001229  81.4339 278.6803 15.34394686 70283","mean_motion":15.34394686,"eccentricity":0.0001229,"inclination_deg":53.1612,"raan_deg":296.0673,"arg_perigee_deg":81.4339,"mean_anomaly_deg":278.6803,"bstar":0.00049678,"rev_number":7028,"period_min":93.848083100048,"perigee_km":461.87829337391,"apogee_km":463.55977578721,"semimajor_km":6840.8560345806,"source":"CELESTRAK","updated_at":"2026-09-21T09:00:35.397158Z"}}}